,,Stat5,,Stat1,,Stat2,,Stat3,,Stat4,,Wind1,,Wind1,
time,status,PA1M_AVG,status,PR1M_SUM,status,RH1M_AVG,status,SR1M_AVG,status,TA1M_AVG,status,W1dAve1m,status,W1sAve1m,
2000-12-11, 00:00:00,VALID,917.571,VALID,0,VALID,93.8915,VALID,0.0339617,VALID,20.8876,VALID,122,VALID,0,
2000-12-11, 00:01:00,VALID,917.569,VALID,0,VALID,93.7185,VALID,-0.0169808,VALID,20.9035,VALID,122,VALID,0,
2000-12-11, 00:02:00,VALID,917.58,VALID,0,VALID,93.641,VALID,0.0339617,VALID,20.9097,VALID,122,VALID,0,
2000-12-11, 00:03:00,VALID,917.594,VALID,0,VALID,93.674,VALID,0,VALID,20.9328,VALID,122,VALID,0,
2000-12-11, 00:04:00,VALID,917.596,VALID,0,VALID,93.6524,VALID,0.0339617,VALID,20.9417,VALID,122,VALID,0,
2000-12-11, 00:05:00,VALID,917.606,VALID,0,VALID,93.6003,VALID,0,VALID,20.9684,VALID,122,VALID,0,
2000-12-11, 00:06:00,VALID,917.608,VALID,0,VALID,93.4706,VALID,0.0339617,VALID,20.998,VALID,122,VALID,0,
2000-12-11, 00:07:00,VALID,917.606,VALID,0,VALID,93.1628,VALID,0,VALID,20.9972,VALID,122,VALID,0,
2000-12-11, 00:08:00,VALID,917.609,VALID,0,VALID,92.8742,VALID,0,VALID,20.9905,VALID,122,VALID,0,
2000-12-11, 00:09:00,VALID,917.62,VALID,0,VALID,93.0891,VALID,0.0339617,VALID,20.9678,VALID,126,VALID,0,
2000-12-11, 00:10:00,VALID,917.631,VALID,0,VALID,93.3027,VALID,0.0169808,VALID,20.9716,VALID,111,VALID,0,
2000-12-11, 00:11:00,VALID,917.645,VALID,0,VALID,93.4159,VALID,0,VALID,20.9649,VALID,90,VALID,0,
2000-12-11, 00:12:00,VALID,917.636,VALID,0,VALID,93.4769,VALID,0.0679233,VALID,20.9196,VALID,92,VALID,0,
2000-12-11, 00:13:00,VALID,917.631,VALID,0,VALID,93.5965,VALID,0.0169808,VALID,20.8876,VALID,95,VALID,0.383413,
2000-12-11, 00:14:00,VALID,917.61,VALID,0,VALID,93.6816,VALID,0.0169808,VALID,20.855,VALID,94,VALID,0.906055,
2000-12-11, 00:15:00,VALID,917.577,VALID,0,VALID,93.7007,VALID,0,VALID,20.8189,VALID,92,VALID,0.849507,
2000-12-11, 00:16:00,VALID,917.57,VALID,0,VALID,93.8075,VALID,0,VALID,20.8065,VALID,92,VALID,0.952919,
2000-12-11, 00:17:00,VALID,917.545,VALID,0,VALID,93.936,VALID,0,VALID,20.7936,VALID,94,VALID,0.801398,
2000-12-11, 00:18:00,VALID,917.521,VALID,0,VALID,93.9347,VALID,0.0509425,VALID,20.7836,VALID,102,VALID,0.749794,
2000-12-11, 00:19:00,VALID,917.502,VALID,0,VALID,93.8788,VALID,0.0169808,VALID,20.772,VALID,103,VALID,0.751234,
2000-12-11, 00:20:00,VALID,917.476,VALID,0,VALID,93.8546,VALID,-0.0169808,VALID,20.7359,VALID,121,VALID,1.23684,
2000-12-11, 00:21:00,VALID,917.471,VALID,0,VALID,93.9042,VALID,0,VALID,20.7526,VALID,111,VALID,0.843149,
2000-12-11, 00:22:00,VALID,917.471,VALID,0,VALID,93.8457,VALID,0,VALID,20.7494,VALID,119,VALID,0.557031,
2000-12-11, 00:23:00,VALID,917.457,VALID,0,VALID,93.8571,VALID,-0.0339617,VALID,20.7434,VALID,123,VALID,0.39926,
2000-12-11, 00:24:00,VALID,917.463,VALID,0,VALID,93.8088,VALID,-0.0169808,VALID,20.7526,VALID,123,VALID,0.208882,
2000-12-11, 00:25:00,VALID,917.48,VALID,0,VALID,93.8266,VALID,-0.0169808,VALID,20.7618,VALID,123,VALID,0,
2000-12-11, 00:26:00,VALID,917.503,VALID,0,VALID,93.641,VALID,0,VALID,20.7297,VALID,69,VALID,0.314967,
2000-12-11, 00:27:00,VALID,917.524,VALID,0,VALID,93.866,VALID,0,VALID,20.7009,VALID,64,VALID,0.398438,
2000-12-11, 00:28:00,VALID,917.556,VALID,0,VALID,93.8355,VALID,-0.0339617,VALID,20.6648,VALID,75,VALID,0.763158,
2000-12-11, 00:29:00,VALID,917.552,VALID,0,VALID,93.8991,VALID,-0.0339617,VALID,20.6425,VALID,65,VALID,0.578526,
2000-12-11, 00:30:00,VALID,917.558,VALID,0,VALID,93.8966,VALID,0,VALID,20.6228,VALID,81,VALID,0.557031,
2000-12-11, 00:31:00,VALID,917.578,VALID,0,VALID,93.8444,VALID,-0.0169808,VALID,20.6161,VALID,67,VALID,0.443462,
2000-12-11, 00:32:00,VALID,917.571,VALID,0,VALID,93.8915,VALID,-0.0339617,VALID,20.6204,VALID,45,VALID,0.545641,
2000-12-11, 00:33:00,VALID,917.572,VALID,0,VALID,93.9436,VALID,-0.0509425,VALID,20.6169,VALID,69,VALID,0.546875,
2000-12-11, 00:34:00,VALID,917.55,VALID,0,VALID,93.8978,VALID,-0.0169808,VALID,20.6107,VALID,57,VALID,0.511719,
2000-12-11, 00:35:00,VALID,917.553,VALID,0,VALID,93.9741,VALID,-0.0339617,VALID,20.6169,VALID,53,VALID,0.638569,
2000-12-11, 00:36:00,VALID,917.538,VALID,0,VALID,93.8724,VALID,-0.0169808,VALID,20.6271,VALID,60,VALID,0.744449,
2000-12-11, 00:37:00,VALID,917.527,VALID,0,VALID,93.7262,VALID,-0.0339617,VALID,20.6564,VALID,88,VALID,0.598157,
2000-12-11, 00:38:00,VALID,917.522,VALID,0,VALID,93.66,VALID,-0.0509425,VALID,20.6524,VALID,75,VALID,0.486914,
2000-12-11, 00:39:00,VALID,917.508,VALID,0,VALID,93.702,VALID,-0.0679233,VALID,20.6465,VALID,56,VALID,1.01254,
2000-12-11, 00:40:00,VALID,917.501,VALID,0,VALID,93.7808,VALID,-0.0509425,VALID,20.6594,VALID,71,VALID,0.446546,
2000-12-11, 00:41:00,VALID,917.51,VALID,0,VALID,93.7999,VALID,-0.0509425,VALID,20.6654,VALID,71,VALID,0.615954,
2000-12-11, 00:42:00,VALID,917.508,VALID,0,VALID,93.6181,VALID,-0.0849042,VALID,20.6656,VALID,81,VALID,0.889803,
2000-12-11, 00:43:00,VALID,917.492,VALID,0,VALID,93.6969,VALID,-0.0339617,VALID,20.6624,VALID,72,VALID,0.280016,
2000-12-11, 00:44:00,VALID,917.479,VALID,0,VALID,93.7134,VALID,-0.0509425,VALID,20.6395,VALID,60,VALID,0.66509,
2000-12-11, 00:45:00,VALID,917.466,VALID,0,VALID,93.7147,VALID,-0.0339617,VALID,20.6465,VALID,60,VALID,0.592548,
2000-12-11, 00:46:00,VALID,917.461,VALID,0,VALID,93.7147,VALID,-0.0339617,VALID,20.6427,VALID,89,VALID,0.573047,
2000-12-11, 00:47:00,VALID,917.47,VALID,0,VALID,93.468,VALID,-0.0509425,VALID,20.6301,VALID,73,VALID,0.588816,
2000-12-11, 00:48:00,VALID,917.471,VALID,0,VALID,93.4451,VALID,-0.0509425,VALID,20.6398,VALID,92,VALID,0.629934,
2000-12-11, 00:49:00,VALID,917.449,VALID,0,VALID,93.4044,VALID,0,VALID,20.6258,VALID,86,VALID,0.591077,
2000-12-11, 00:50:00,VALID,917.434,VALID,0,VALID,93.3243,VALID,0.0339617,VALID,20.6124,VALID,73,VALID,0.670025,
2000-12-11, 00:51:00,VALID,917.423,VALID,0,VALID,93.3129,VALID,0.0169808,VALID,20.6091,VALID,75,VALID,0.864926,
2000-12-11, 00:52:00,VALID,917.409,VALID,0,VALID,93.3472,VALID,0.0509425,VALID,20.5935,VALID,45,VALID,0.645148,
2000-12-11, 00:53:00,VALID,917.409,VALID,0,VALID,93.4324,VALID,0.0169808,VALID,20.59,VALID,54,VALID,0.270032,
2000-12-11, 00:54:00,VALID,917.398,VALID,0,VALID,93.201,VALID,0.0679233,VALID,20.5967,VALID,69,VALID,0.00195313,
2000-12-11, 00:55:00,VALID,917.367,VALID,0,VALID,93.1438,VALID,0.0509425,VALID,20.6153,VALID,83,VALID,0,
2000-12-11, 00:56:00,VALID,917.349,VALID,0,VALID,93.1857,VALID,0.0679233,VALID,20.6255,VALID,77,VALID,0,
2000-12-11, 00:57:00,VALID,917.349,VALID,0,VALID,93.4515,VALID,0.0849042,VALID,20.6261,VALID,36,VALID,0,
2000-12-11, 00:58:00,VALID,917.339,VALID,0,VALID,93.8457,VALID,0.0509425,VALID,20.6228,VALID,30,VALID,0,
2000-12-11, 00:59:00,VALID,917.328,VALID,0,VALID,94.4942,VALID,0.0679233,VALID,20.6096,VALID,24,VALID,0,
2000-12-11, 01:00:00,VALID,917.292,VALID,0,VALID,94.7574,VALID,0.0169808,VALID,20.5703,VALID,24,VALID,0,
2000-12-11, 01:01:00,VALID,917.26,VALID,0,VALID,94.8693,VALID,0.0679233,VALID,20.5582,VALID,47,VALID,0,
2000-12-11, 01:02:00,VALID,917.246,VALID,0,VALID,94.5997,VALID,0.0339617,VALID,20.548,VALID,68,VALID,0,
2000-12-11, 01:03:00,VALID,917.229,VALID,0,VALID,94.3658,VALID,0.0849042,VALID,20.5092,VALID,68,VALID,0,
2000-12-11, 01:04:00,VALID,917.238,VALID,0,VALID,94.7562,VALID,0,VALID,20.4871,VALID,68,VALID,0,
2000-12-11, 01:05:00,VALID,917.233,VALID,0,VALID,94.877,VALID,-0.0849042,VALID,20.4919,VALID,68,VALID,0,
2000-12-11, 01:06:00,VALID,917.233,VALID,0,VALID,94.999,VALID,-0.0679233,VALID,20.4854,VALID,44,VALID,0,
2000-12-11, 01:07:00,VALID,917.234,VALID,0,VALID,95.2317,VALID,-0.0679233,VALID,20.4722,VALID,342,VALID,0,
2000-12-11, 01:08:00,VALID,917.224,VALID,0,VALID,95.5064,VALID,-0.0509425,VALID,20.4722,VALID,340,VALID,0,
2000-12-11, 01:09:00,VALID,917.209,VALID,0,VALID,95.7022,VALID,-0.0849042,VALID,20.4625,VALID,340,VALID,0,
2000-12-11, 01:10:00,VALID,917.181,VALID,0,VALID,95.7963,VALID,-0.0849042,VALID,20.4722,VALID,340,VALID,0,
2000-12-11, 01:11:00,VALID,917.154,VALID,0,VALID,95.7874,VALID,-0.0849042,VALID,20.479,VALID,340,VALID,0,
2000-12-11, 01:12:00,VALID,917.112,VALID,0,VALID,95.7366,VALID,-0.0679233,VALID,20.4854,VALID,340,VALID,0,
2000-12-11, 01:13:00,VALID,917.114,VALID,0,VALID,95.6628,VALID,-0.0679233,VALID,20.4854,VALID,340,VALID,0,
2000-12-11, 01:14:00,VALID,917.094,VALID,0,VALID,95.5204,VALID,-0.0509425,VALID,20.4887,VALID,340,VALID,0,
2000-12-11, 01:15:00,VALID,917.092,VALID,0,VALID,95.4568,VALID,-0.0509425,VALID,20.5021,VALID,340,VALID,0,
2000-12-11, 01:16:00,VALID,917.097,VALID,0,VALID,95.2953,VALID,-0.0339617,VALID,20.5048,VALID,313,VALID,0,
2000-12-11, 01:17:00,VALID,917.109,VALID,0,VALID,95.0563,VALID,-0.0169808,VALID,20.4916,VALID,269,VALID,0,
2000-12-11, 01:18:00,VALID,917.13,VALID,0,VALID,95.0499,VALID,-0.0679233,VALID,20.4725,VALID,264,VALID,0,
2000-12-11, 01:19:00,VALID,917.14,VALID,0,VALID,95.2317,VALID,-0.0679233,VALID,20.4558,VALID,261,VALID,0,
2000-12-11, 01:20:00,VALID,917.162,VALID,0,VALID,95.3856,VALID,-0.0509425,VALID,20.4437,VALID,259,VALID,0,
2000-12-11, 01:21:00,VALID,917.19,VALID,0,VALID,95.4505,VALID,-0.0849042,VALID,20.4143,VALID,254,VALID,0,
2000-12-11, 01:22:00,VALID,917.231,VALID,0,VALID,95.5954,VALID,-0.0849042,VALID,20.3852,VALID,253,VALID,0,
2000-12-11, 01:23:00,VALID,917.251,VALID,0,VALID,95.7302,VALID,-0.0169808,VALID,20.3524,VALID,252,VALID,0,
2000-12-11, 01:24:00,VALID,917.273,VALID,0,VALID,95.715,VALID,-0.0339617,VALID,20.3397,VALID,251,VALID,0,
2000-12-11, 01:25:00,VALID,917.29,VALID,0,VALID,95.7569,VALID,-0.0849042,VALID,20.3273,VALID,251,VALID,0,
2000-12-11, 01:26:00,VALID,917.279,VALID,0,VALID,95.9298,VALID,-0.0679233,VALID,20.3104,VALID,251,VALID,0,
2000-12-11, 01:27:00,VALID,917.283,VALID,0,VALID,96.0112,VALID,-0.0339617,VALID,20.3077,VALID,257,VALID,0,
2000-12-11, 01:28:00,VALID,917.278,VALID,0,VALID,95.996,VALID,0,VALID,20.2736,VALID,258,VALID,0,
2000-12-11, 01:29:00,VALID,917.272,VALID,0,VALID,95.9922,VALID,0.0339617,VALID,20.2706,VALID,258,VALID,0,
2000-12-11, 01:30:00,VALID,917.252,VALID,0,VALID,95.9235,VALID,0.0339617,VALID,20.2768,VALID,258,VALID,0,
2000-12-11, 01:31:00,VALID,917.231,VALID,0,VALID,95.804,VALID,0.0679233,VALID,20.2806,VALID,258,VALID,0,
2000-12-11, 01:32:00,VALID,917.208,VALID,0,VALID,95.261,VALID,0.0509425,VALID,20.2356,VALID,252,VALID,0,
2000-12-11, 01:33:00,VALID,917.172,VALID,0,VALID,94.7218,VALID,0.0509425,VALID,20.1605,VALID,167,VALID,0,
2000-12-11, 01:34:00,VALID,917.134,VALID,0,VALID,94.9698,VALID,-0.0339617,VALID,20.1165,VALID,128,VALID,0,
2000-12-11, 01:35:00,VALID,917.083,VALID,0,VALID,95.3119,VALID,-0.0679233,VALID,20.1039,VALID,125,VALID,0,
2000-12-11, 01:36:00,VALID,917.068,VALID,0,VALID,95.2152,VALID,-0.0509425,VALID,20.0917,VALID,125,VALID,0,
2000-12-11, 01:37:00,VALID,917.043,VALID,0,VALID,94.9011,VALID,-0.0509425,VALID,20.0295,VALID,125,VALID,0,
2000-12-11, 01:38:00,VALID,917.016,VALID,0,VALID,94.9469,VALID,-0.0509425,VALID,19.9977,VALID,125,VALID,0,
2000-12-11, 01:39:00,VALID,916.976,VALID,0,VALID,95.2381,VALID,-0.0679233,VALID,19.9749,VALID,125,VALID,0,
2000-12-11, 01:40:00,VALID,916.933,VALID,0,VALID,95.4326,VALID,-0.0509425,VALID,19.9644,VALID,125,VALID,0,
2000-12-11, 01:41:00,VALID,916.903,VALID,0,VALID,95.9388,VALID,-0.0679233,VALID,19.9786,VALID,130,VALID,0,
2000-12-11, 01:42:00,VALID,916.868,VALID,0,VALID,96.0977,VALID,-0.0849042,VALID,19.9942,VALID,146,VALID,0,
2000-12-11, 01:43:00,VALID,916.84,VALID,0,VALID,96.1791,VALID,-0.0509425,VALID,19.9972,VALID,152,VALID,0,
2000-12-11, 01:44:00,VALID,916.823,VALID,0,VALID,96.1002,VALID,-0.0509425,VALID,20.0169,VALID,152,VALID,0,
2000-12-11, 01:45:00,VALID,916.797,VALID,0,VALID,95.9146,VALID,-0.0339617,VALID,20.0591,VALID,152,VALID,0,
2000-12-11, 01:46:00,VALID,916.793,VALID,0,VALID,95.6043,VALID,-0.0509425,VALID,20.1014,VALID,152,VALID,0,
2000-12-11, 01:47:00,VALID,916.784,VALID,0,VALID,95.3551,VALID,-0.0679233,VALID,20.1302,VALID,153,VALID,0,
2000-12-11, 01:48:00,VALID,916.77,VALID,0,VALID,95.2228,VALID,-0.0509425,VALID,20.13,VALID,153,VALID,0,
2000-12-11, 01:49:00,VALID,916.753,VALID,0,VALID,95.13,VALID,-0.0169808,VALID,20.1203,VALID,167,VALID,0,
2000-12-11, 01:50:00,VALID,916.724,VALID,0,VALID,95.1097,VALID,-0.0509425,VALID,20.1237,VALID,170,VALID,0,
2000-12-11, 01:51:00,VALID,916.673,VALID,0,VALID,95.1529,VALID,-0.0339617,VALID,20.1011,VALID,177,VALID,0,
2000-12-11, 01:52:00,VALID,916.641,VALID,0,VALID,95.1427,VALID,-0.0679233,VALID,20.0584,VALID,188,VALID,0,
2000-12-11, 01:53:00,VALID,916.632,VALID,0,VALID,95.1033,VALID,-0.0679233,VALID,20.043,VALID,194,VALID,0,
2000-12-11, 01:54:00,VALID,916.619,VALID,0,VALID,95.1949,VALID,-0.0339617,VALID,20.0236,VALID,200,VALID,0,
2000-12-11, 01:55:00,VALID,916.617,VALID,0,VALID,95.2406,VALID,-0.0169808,VALID,20.0139,VALID,205,VALID,0,
2000-12-11, 01:56:00,VALID,916.612,VALID,0,VALID,95.4301,VALID,-0.0509425,VALID,19.995,VALID,220,VALID,0,
2000-12-11, 01:57:00,VALID,916.623,VALID,0,VALID,95.6832,VALID,-0.0509425,VALID,19.9816,VALID,215,VALID,0,
2000-12-11, 01:58:00,VALID,916.617,VALID,0,VALID,95.6743,VALID,-0.0679233,VALID,19.9463,VALID,214,VALID,0,
2000-12-11, 01:59:00,VALID,916.622,VALID,0,VALID,95.8027,VALID,-0.0679233,VALID,19.9234,VALID,217,VALID,0,
2000-12-11, 02:00:00,VALID,916.635,VALID,0,VALID,96.0774,VALID,-0.0169808,VALID,19.9174,VALID,220,VALID,0,
2000-12-11, 02:01:00,VALID,916.659,VALID,0,VALID,96.4919,VALID,-0.0679233,VALID,19.8976,VALID,221,VALID,0.588405,
2000-12-11, 02:02:00,VALID,916.655,VALID,0,VALID,96.8123,VALID,-0.0509425,VALID,19.908,VALID,221,VALID,1.05304,
2000-12-11, 02:03:00,VALID,916.655,VALID,0,VALID,97.0476,VALID,-0.0509425,VALID,19.9008,VALID,213,VALID,0.907072,
2000-12-11, 02:04:00,VALID,916.652,VALID,0,VALID,97.1748,VALID,-0.0339617,VALID,19.8908,VALID,217,VALID,0.778988,
2000-12-11, 02:05:00,VALID,916.645,VALID,0,VALID,97.3337,VALID,-0.0169808,VALID,19.8682,VALID,221,VALID,0.845152,
2000-12-11, 02:06:00,VALID,916.655,VALID,0,VALID,97.4532,VALID,-0.0169808,VALID,19.865,VALID,224,VALID,0.708984,
2000-12-11, 02:07:00,VALID,916.666,VALID,0,VALID,97.5092,VALID,-0.0339617,VALID,19.8588,VALID,220,VALID,0.679688,
2000-12-11, 02:08:00,VALID,916.678,VALID,0,VALID,97.6134,VALID,0,VALID,19.8486,VALID,220,VALID,0.540707,
2000-12-11, 02:09:00,VALID,916.7,VALID,0,VALID,97.7444,VALID,0,VALID,19.8451,VALID,218,VALID,0.495066,
2000-12-11, 02:10:00,VALID,916.719,VALID,0,VALID,97.808,VALID,-0.0169808,VALID,19.8521,VALID,201,VALID,0.563117,
2000-12-11, 02:11:00,VALID,916.731,VALID,0,VALID,97.8449,VALID,-0.0339617,VALID,19.8553,VALID,191,VALID,0.598479,
2000-12-11, 02:12:00,VALID,916.739,VALID,0,VALID,97.8538,VALID,-0.0339617,VALID,19.8583,VALID,197,VALID,0.842516,
2000-12-11, 02:13:00,VALID,916.742,VALID,0,VALID,97.8932,VALID,0,VALID,19.8749,VALID,198,VALID,0.65605,
2000-12-11, 02:14:00,VALID,916.734,VALID,0,VALID,97.8589,VALID,-0.0509425,VALID,19.8722,VALID,205,VALID,0.640234,
2000-12-11, 02:15:00,VALID,916.723,VALID,0,VALID,97.8614,VALID,-0.0509425,VALID,19.8655,VALID,207,VALID,0.723684,
2000-12-11, 02:16:00,VALID,916.687,VALID,0,VALID,97.8487,VALID,-0.0679233,VALID,19.869,VALID,197,VALID,0.821957,
2000-12-11, 02:17:00,VALID,916.66,VALID,0,VALID,97.8729,VALID,-0.0339617,VALID,19.8886,VALID,187,VALID,0.875206,
2000-12-11, 02:18:00,VALID,916.646,VALID,0,VALID,97.8487,VALID,-0.0339617,VALID,19.8752,VALID,186,VALID,0.725946,
2000-12-11, 02:19:00,VALID,916.614,VALID,0,VALID,97.8017,VALID,-0.0679233,VALID,19.8623,VALID,182,VALID,0.517475,
2000-12-11, 02:20:00,VALID,916.602,VALID,0,VALID,97.7419,VALID,-0.0849042,VALID,19.8695,VALID,166,VALID,0.569901,
2000-12-11, 02:21:00,VALID,916.573,VALID,0,VALID,97.7406,VALID,-0.0339617,VALID,19.8491,VALID,173,VALID,0.56851,
2000-12-11, 02:22:00,VALID,916.556,VALID,0,VALID,97.7457,VALID,-0.0509425,VALID,19.869,VALID,167,VALID,0.584375,
2000-12-11, 02:23:00,VALID,916.543,VALID,0,VALID,97.6033,VALID,-0.101885,VALID,19.8657,VALID,174,VALID,0.628701,
2000-12-11, 02:24:00,VALID,916.545,VALID,0,VALID,97.5372,VALID,-0.0849042,VALID,19.8725,VALID,169,VALID,0.561472,
2000-12-11, 02:25:00,VALID,916.526,VALID,0,VALID,97.4748,VALID,-0.0509425,VALID,19.8561,VALID,173,VALID,0.534951,
2000-12-11, 02:26:00,VALID,916.51,VALID,0,VALID,97.5041,VALID,-0.0679233,VALID,19.8824,VALID,183,VALID,0.496711,
2000-12-11, 02:27:00,VALID,916.491,VALID,0,VALID,97.499,VALID,-0.0339617,VALID,19.872,VALID,188,VALID,0.455181,
2000-12-11, 02:28:00,VALID,916.471,VALID,0,VALID,97.4723,VALID,-0.0509425,VALID,19.8685,VALID,186,VALID,0.415707,
2000-12-11, 02:29:00,VALID,916.438,VALID,0,VALID,97.4405,VALID,-0.0339617,VALID,19.8717,VALID,186,VALID,0.442708,
2000-12-11, 02:30:00,VALID,916.409,VALID,0,VALID,97.4392,VALID,-0.0509425,VALID,19.8789,VALID,186,VALID,0.39043,
2000-12-11, 02:31:00,VALID,916.359,VALID,0,VALID,97.4329,VALID,-0.101885,VALID,19.8854,VALID,186,VALID,0.432566,
2000-12-11, 02:32:00,VALID,916.298,VALID,0,VALID,97.4405,VALID,-0.0509425,VALID,19.8854,VALID,188,VALID,0.057977,
2000-12-11, 02:33:00,VALID,916.282,VALID,0,VALID,97.4723,VALID,-0.0679233,VALID,19.8849,VALID,190,VALID,0,
2000-12-11, 02:34:00,VALID,916.266,VALID,0,VALID,97.452,VALID,-0.0169808,VALID,19.901,VALID,190,VALID,0,
2000-12-11, 02:35:00,VALID,916.243,VALID,0,VALID,97.424,VALID,-0.0509425,VALID,19.9174,VALID,208,VALID,0,
2000-12-11, 02:36:00,VALID,916.233,VALID,0,VALID,97.4202,VALID,-0.0169808,VALID,19.9334,VALID,223,VALID,0,
2000-12-11, 02:37:00,VALID,916.214,VALID,0,VALID,97.3769,VALID,-0.0169808,VALID,19.9597,VALID,217,VALID,0,
2000-12-11, 02:38:00,VALID,916.199,VALID,0,VALID,97.3134,VALID,-0.0169808,VALID,19.9729,VALID,215,VALID,0.709961,
2000-12-11, 02:39:00,VALID,916.205,VALID,0,VALID,97.2447,VALID,-0.0679233,VALID,19.9587,VALID,215,VALID,0.503084,
2000-12-11, 02:40:00,VALID,916.222,VALID,0,VALID,97.2434,VALID,-0.0169808,VALID,19.9915,VALID,220,VALID,0.346834,
2000-12-11, 02:41:00,VALID,916.25,VALID,0,VALID,97.2002,VALID,-0.0679233,VALID,19.991,VALID,222,VALID,0.0485197,
2000-12-11, 02:42:00,VALID,916.254,VALID,0,VALID,97.0908,VALID,-0.0509425,VALID,20.0044,VALID,227,VALID,0,
2000-12-11, 02:43:00,VALID,916.254,VALID,0,VALID,97.0196,VALID,-0.0339617,VALID,20.0179,VALID,229,VALID,0.405633,
2000-12-11, 02:44:00,VALID,916.254,VALID,0,VALID,96.9853,VALID,-0.0339617,VALID,20.0238,VALID,226,VALID,0.431949,
2000-12-11, 02:45:00,VALID,916.246,VALID,0,VALID,96.942,VALID,-0.0679233,VALID,20.037,VALID,222,VALID,0.513421,
2000-12-11, 02:46:00,VALID,916.252,VALID,0,VALID,96.8899,VALID,-0.0339617,VALID,20.0504,VALID,222,VALID,0.44082,
2000-12-11, 02:47:00,VALID,916.261,VALID,0,VALID,96.8441,VALID,-0.0509425,VALID,20.0467,VALID,224,VALID,0.420641,
2000-12-11, 02:48:00,VALID,916.279,VALID,0,VALID,96.7984,VALID,-0.0509425,VALID,20.0534,VALID,226,VALID,0.298725,
2000-12-11, 02:49:00,VALID,916.301,VALID,0,VALID,96.7742,VALID,-0.0339617,VALID,20.0362,VALID,226,VALID,0.167969,
2000-12-11, 02:50:00,VALID,916.326,VALID,0,VALID,96.7615,VALID,-0.0679233,VALID,20.0497,VALID,225,VALID,0,
2000-12-11, 02:51:00,VALID,916.341,VALID,0,VALID,96.689,VALID,-0.0169808,VALID,20.0502,VALID,226,VALID,0.0651727,
2000-12-11, 02:52:00,VALID,916.341,VALID,0,VALID,96.6788,VALID,-0.0339617,VALID,20.0596,VALID,225,VALID,0.00534539,
2000-12-11, 02:53:00,VALID,916.314,VALID,0,VALID,96.5695,VALID,-0.0169808,VALID,20.0594,VALID,225,VALID,0,
2000-12-11, 02:54:00,VALID,916.289,VALID,0,VALID,96.5389,VALID,-0.0169808,VALID,20.0494,VALID,220,VALID,0,
2000-12-11, 02:55:00,VALID,916.275,VALID,0,VALID,96.5415,VALID,-0.0339617,VALID,20.0432,VALID,205,VALID,0,
2000-12-11, 02:56:00,VALID,916.255,VALID,0,VALID,96.6432,VALID,-0.0509425,VALID,20.0534,VALID,211,VALID,0,
2000-12-11, 02:57:00,VALID,916.25,VALID,0,VALID,96.7017,VALID,-0.0169808,VALID,20.043,VALID,215,VALID,0,
2000-12-11, 02:58:00,VALID,916.246,VALID,0,VALID,96.7373,VALID,-0.0509425,VALID,20.0236,VALID,232,VALID,0,
2000-12-11, 02:59:00,VALID,916.239,VALID,0,VALID,96.8429,VALID,0,VALID,20.0203,VALID,232,VALID,0,
2000-12-11, 03:00:00,VALID,916.231,VALID,0,VALID,96.9204,VALID,-0.0169808,VALID,20.0139,VALID,225,VALID,0,
2000-12-11, 03:01:00,VALID,916.223,VALID,0,VALID,96.9573,VALID,0,VALID,19.9913,VALID,205,VALID,0,
2000-12-11, 03:02:00,VALID,916.204,VALID,0,VALID,97.0107,VALID,-0.0339617,VALID,19.9818,VALID,205,VALID,0,
2000-12-11, 03:03:00,VALID,916.183,VALID,0,VALID,97.0056,VALID,-0.0169808,VALID,19.9557,VALID,186,VALID,0,
2000-12-11, 03:04:00,VALID,916.148,VALID,0,VALID,97.0044,VALID,-0.0169808,VALID,19.9358,VALID,157,VALID,0,
2000-12-11, 03:05:00,VALID,916.117,VALID,0,VALID,97.0082,VALID,0,VALID,19.9299,VALID,153,VALID,0,
2000-12-11, 03:06:00,VALID,916.099,VALID,0,VALID,97.0094,VALID,0,VALID,19.9232,VALID,151,VALID,0,
2000-12-11, 03:07:00,VALID,916.096,VALID,0,VALID,96.998,VALID,-0.0169808,VALID,19.8938,VALID,149,VALID,0,
2000-12-11, 03:08:00,VALID,916.087,VALID,0,VALID,96.9955,VALID,0,VALID,19.8777,VALID,152,VALID,0,
2000-12-11, 03:09:00,VALID,916.1,VALID,0,VALID,97.0629,VALID,0,VALID,19.868,VALID,155,VALID,0,
2000-12-11, 03:10:00,VALID,916.105,VALID,0,VALID,97.087,VALID,0,VALID,19.8615,VALID,155,VALID,0,
2000-12-11, 03:11:00,VALID,916.106,VALID,0,VALID,97.148,VALID,0,VALID,19.8715,VALID,155,VALID,0,
2000-12-11, 03:12:00,VALID,916.089,VALID,0,VALID,97.1926,VALID,0,VALID,19.8645,VALID,155,VALID,0,
2000-12-11, 03:13:00,VALID,916.102,VALID,0,VALID,97.2256,VALID,0,VALID,19.871,VALID,155,VALID,0,
2000-12-11, 03:14:00,VALID,916.107,VALID,0,VALID,97.162,VALID,0.0169808,VALID,19.8971,VALID,155,VALID,0,
2000-12-11, 03:15:00,VALID,916.111,VALID,0,VALID,97.129,VALID,0,VALID,19.9035,VALID,156,VALID,0,
2000-12-11, 03:16:00,VALID,916.114,VALID,0,VALID,97.1455,VALID,0,VALID,19.91,VALID,167,VALID,0,
2000-12-11, 03:17:00,VALID,916.12,VALID,0,VALID,97.1582,VALID,0,VALID,19.8966,VALID,169,VALID,0,
2000-12-11, 03:18:00,VALID,916.142,VALID,0,VALID,97.1875,VALID,0,VALID,19.913,VALID,173,VALID,0,
2000-12-11, 03:19:00,VALID,916.156,VALID,0,VALID,97.1836,VALID,0,VALID,19.9067,VALID,176,VALID,0,
2000-12-11, 03:20:00,VALID,916.153,VALID,0,VALID,97.218,VALID,0.0169808,VALID,19.8966,VALID,181,VALID,0,
2000-12-11, 03:21:00,VALID,916.149,VALID,0,VALID,97.2002,VALID,0,VALID,19.8938,VALID,181,VALID,0,
2000-12-11, 03:22:00,VALID,916.134,VALID,0,VALID,97.1442,VALID,0,VALID,19.8642,VALID,181,VALID,0,
2000-12-11, 03:23:00,VALID,916.122,VALID,0,VALID,97.0183,VALID,0.0169808,VALID,19.868,VALID,180,VALID,0,
2000-12-11, 03:24:00,VALID,916.122,VALID,0,VALID,96.8772,VALID,0,VALID,19.8516,VALID,176,VALID,0,
2000-12-11, 03:25:00,VALID,916.136,VALID,0,VALID,96.8047,VALID,0,VALID,19.8419,VALID,176,VALID,0,
2000-12-11, 03:26:00,VALID,916.151,VALID,0,VALID,96.8238,VALID,0.0169808,VALID,19.8193,VALID,176,VALID,0,
2000-12-11, 03:27:00,VALID,916.166,VALID,0,VALID,96.895,VALID,0,VALID,19.8327,VALID,176,VALID,0,
2000-12-11, 03:28:00,VALID,916.185,VALID,0,VALID,96.881,VALID,0.0509425,VALID,19.8421,VALID,176,VALID,0,
2000-12-11, 03:29:00,VALID,916.208,VALID,0,VALID,96.9103,VALID,0,VALID,19.8518,VALID,176,VALID,0,
2000-12-11, 03:30:00,VALID,916.218,VALID,0,VALID,96.8899,VALID,0,VALID,19.8647,VALID,176,VALID,0,
2000-12-11, 03:31:00,VALID,916.236,VALID,0,VALID,96.6928,VALID,0,VALID,19.8352,VALID,176,VALID,0,
2000-12-11, 03:32:00,VALID,916.229,VALID,0,VALID,96.4538,VALID,0.0169808,VALID,19.8227,VALID,164,VALID,0,
2000-12-11, 03:33:00,VALID,916.217,VALID,0,VALID,96.221,VALID,0,VALID,19.7937,VALID,146,VALID,0,
2000-12-11, 03:34:00,VALID,916.195,VALID,0,VALID,96.3457,VALID,0.0339617,VALID,19.7902,VALID,143,VALID,0,
2000-12-11, 03:35:00,VALID,916.171,VALID,0,VALID,96.3902,VALID,0,VALID,19.781,VALID,134,VALID,0,
2000-12-11, 03:36:00,VALID,916.146,VALID,0,VALID,96.4359,VALID,0,VALID,19.7549,VALID,123,VALID,0.663446,
2000-12-11, 03:37:00,VALID,916.115,VALID,0,VALID,96.764,VALID,0.0169808,VALID,19.735,VALID,120,VALID,1.09416,
2000-12-11, 03:38:00,VALID,916.109,VALID,0,VALID,97.0133,VALID,0,VALID,19.7353,VALID,120,VALID,0.878906,
2000-12-11, 03:39:00,VALID,916.094,VALID,0,VALID,97.1938,VALID,0,VALID,19.7358,VALID,129,VALID,0.958059,